Date String (YYYY-MM-DD hh:mm:ss) UTC,Instrument flags,Ambient pressure (hPa),Sample flow (lpm),Bypass flow (lpm),Sample temperature (°C),Ambient temperature (°C),ASC tube jacket temperature (°C),LED temperature (°C),Box temperature (°C),Sample RH (%),Span deviation,Mass concentration (μg/m³),Mass concentration (μg/m³),Mass concentration (μg/m³)
DateTimeUTC,F1_M11,P_M11,Q1_M11,Q2_M11,T1_M11,T2_M11,T3_M11,T4_M11,T5_M11,U1_M11,ZSPAN_M11,X0_M11,X2_M11,X1_M11
2023-01-02 02:00:00,,0819.8,5.00,0.00,22.9,21.7,00.0,31.8,24.8,17.7,-001.3,0017.14,0013.07,0012.70
2023-01-02 02:01:00,,0819.8,5.01,0.00,22.9,21.7,00.0,31.8,24.8,17.7,-001.5,0017.16,0013.10,0012.73
2023-01-02 02:02:00,,0819.8,5.00,0.00,23.0,21.7,00.0,31.8,24.9,17.8,-001.6,0017.25,0013.13,0012.74
2023-01-02 02:03:00,,0819.8,5.00,0.00,23.0,21.7,00.0,31.8,24.8,18.1,-001.6,0017.15,0013.13,0012.75
2023-01-02 02:04:00,,0819.8,5.00,0.00,23.0,21.7,00.0,31.8,24.8,17.9,-001.6,0017.22,0013.17,0012.79
2023-01-02 02:05:00,,0819.8,5.00,0.00,23.0,21.7,00.0,31.8,24.8,17.9,-001.7,0017.35,0013.26,0012.87
2023-01-02 02:06:00,,0819.9,5.00,0.00,23.0,21.7,00.0,31.8,24.8,17.9,-002.0,0017.45,0013.31,0012.92
2023-01-02 02:07:00,,0819.9,5.00,0.00,22.9,21.7,00.0,31.8,24.8,17.8,-002.1,0017.38,0013.27,0012.89
2023-01-02 02:08:00,,0819.9,4.99,0.00,22.9,21.7,00.0,31.8,24.8,17.7,-002.0,0016.69,0013.18,0012.80
2023-01-02 02:09:00,,0819.9,5.00,0.00,22.9,21.6,00.0,31.8,24.8,17.7,-002.1,0016.47,0013.01,0012.62
2023-01-02 02:10:00,,0819.9,4.99,0.00,22.9,21.6,00.0,31.8,24.8,17.5,-002.1,0016.29,0012.82,0012.43
2023-01-02 02:11:00,,0819.8,5.01,0.00,22.9,21.6,00.0,31.8,24.8,17.5,-002.1,0016.03,0012.60,0012.23
2023-01-02 02:12:00,,0819.9,5.01,0.00,22.9,21.6,00.0,31.8,24.8,17.6,-001.9,0015.94,0012.49,0012.09
2023-01-02 02:13:00,,0819.9,5.00,0.00,22.9,21.6,00.0,31.8,24.8,17.5,-001.8,0015.74,0012.32,0011.93
2023-01-02 02:14:00,,0820.0,5.00,0.00,22.9,21.6,00.0,31.8,24.8,17.5,-001.7,0015.63,0012.17,0011.76
2023-01-02 02:15:00,,0820.0,5.00,0.00,22.9,21.6,00.0,31.8,24.8,17.5,-001.6,0015.42,0011.97,0011.55
2023-01-02 02:16:00,,0819.9,5.00,0.00,22.9,21.6,00.0,31.8,24.8,17.5,-001.6,0015.21,0011.74,0011.34
2023-01-02 02:17:00,,0819.9,5.00,0.00,22.9,21.6,00.0,31.8,24.8,17.5,-001.2,0014.85,0011.41,0011.03
2023-01-02 02:18:00,,0820.0,4.99,0.00,22.9,21.5,00.0,31.8,24.7,17.5,-001.0,0014.93,0011.20,0010.82
2023-01-02 02:19:00,,0819.9,4.99,0.00,22.9,21.4,00.0,31.8,24.7,17.6,-000.8,0015.21,0011.11,0010.71
2023-01-02 02:20:00,,0819.9,4.99,0.00,22.8,21.4,00.0,31.8,24.7,17.7,-000.7,0015.31,0011.18,0010.77
2023-01-02 02:21:00,,0819.9,5.01,0.00,22.8,21.4,00.0,31.8,24.7,17.7,-000.7,0015.44,0011.30,0010.90
2023-01-02 02:22:00,,0820.0,5.00,0.00,22.8,21.5,00.0,31.8,24.7,17.6,-000.5,0015.59,0011.42,0011.01
2023-01-02 02:23:00,,0819.9,5.00,0.00,22.9,21.5,00.0,31.8,24.7,17.6,-000.5,0015.59,0011.42,0011.01
2023-01-02 02:24:00,,0819.9,5.01,0.00,22.9,21.5,00.0,31.8,24.7,17.6,-000.8,0015.54,0011.35,0010.94
2023-01-02 02:25:00,,0819.9,5.00,0.00,22.9,21.5,00.0,31.8,24.7,17.5,-001.1,0015.45,0011.30,0010.90
2023-01-02 02:26:00,,0819.9,5.00,0.00,22.9,21.6,00.0,31.8,24.8,17.6,-001.2,0015.49,0011.29,0010.89
2023-01-02 02:27:00,,0819.9,5.00,0.00,22.9,21.5,00.0,31.8,24.7,17.6,-001.3,0015.46,0011.24,0010.82
2023-01-02 02:28:00,,0819.9,5.00,0.00,22.9,21.5,00.0,31.8,24.7,17.5,-001.2,0015.42,0011.22,0010.79
2023-01-02 02:29:00,,0819.9,5.00,0.00,22.9,21.5,00.0,31.8,24.7,17.5,-001.2,0015.09,0011.23,0010.81
2023-01-02 02:30:00,,0819.9,5.01,0.00,22.9,21.5,00.0,31.7,24.7,17.5,-001.1,0014.66,0011.13,0010.72
2023-01-02 02:31:00,,0819.8,5.00,0.00,22.8,21.5,00.0,31.7,24.7,17.5,-001.3,0014.46,0010.96,0010.56
2023-01-02 02:32:00,,0819.8,5.00,0.00,22.8,21.5,00.0,31.7,24.7,17.5,-001.3,0014.28,0010.80,0010.39
2023-01-02 02:33:00,,0819.8,4.99,0.00,22.8,21.5,00.0,31.7,24.7,17.5,-001.6,0014.10,0010.65,0010.24
2023-01-02 02:34:00,,0819.9,5.00,0.00,22.8,21.5,00.0,31.7,24.7,17.5,-001.6,0013.93,0010.52,0010.12
2023-01-02 02:35:00,,0819.9,5.00,0.00,22.8,21.5,00.0,31.7,24.6,17.5,-001.4,0013.73,0010.39,0010.01
2023-01-02 02:36:00,,0819.9,5.00,0.00,22.8,21.3,00.0,31.7,24.6,17.5,-001.2,0013.57,0010.27,0009.90
2023-01-02 02:37:00,,0819.9,4.99,0.00,22.8,21.2,00.0,31.7,24.6,17.5,-001.4,0013.33,0010.11,0009.77
2023-01-02 02:38:00,,0820.0,5.00,0.00,22.7,21.2,00.0,31.7,24.5,17.5,-001.3,0013.15,0010.01,0009.67
2023-01-02 02:39:00,,0819.9,5.00,0.00,22.7,21.2,00.0,31.7,24.5,17.6,-001.7,0013.10,0009.97,0009.64
2023-01-02 02:40:00,,0819.9,5.00,0.00,22.7,21.2,00.0,31.7,24.5,17.6,-001.7,0013.12,0009.97,0009.63
2023-01-02 02:41:00,,0819.9,5.01,0.00,22.7,21.2,00.0,31.6,24.5,17.6,-001.8,0013.11,0009.96,0009.62
2023-01-02 02:42:00,,0819.9,5.00,0.00,22.7,21.3,00.0,31.6,24.5,17.6,-001.4,0013.06,0009.94,0009.60
2023-01-02 02:43:00,,0820.0,5.00,0.00,22.7,21.3,00.0,31.6,24.5,17.6,-001.5,0013.08,0009.95,0009.60
2023-01-02 02:44:00,,0819.9,5.00,0.00,22.7,21.4,00.0,31.6,24.6,17.6,-001.2,0013.17,0010.02,0009.68
2023-01-02 02:45:00,,0819.9,4.99,0.00,22.7,21.4,00.0,31.6,24.6,17.6,-001.3,0013.27,0010.10,0009.77
2023-01-02 02:46:00,,0819.9,5.00,0.00,22.7,21.4,00.0,31.6,24.5,17.6,-001.4,0013.39,0010.19,0009.85
2023-01-02 02:47:00,,0819.9,4.99,0.00,22.7,21.4,00.0,31.6,24.5,17.7,-001.3,0013.50,0010.28,0009.93
2023-01-02 02:48:00,,0819.9,5.00,0.00,22.7,21.4,00.0,31.6,24.5,17.7,-001.1,0013.65,0010.37,0009.99
2023-01-02 02:49:00,,0819.9,4.99,0.00,22.7,21.4,00.0,31.6,24.5,17.6,-001.3,0013.75,0010.40,0010.02
2023-01-02 02:50:00,,0819.9,5.00,0.00,22.6,21.3,00.0,31.6,24.5,17.6,-001.4,0014.12,0010.43,0010.03
2023-01-02 02:51:00,,0819.9,5.00,0.00,22.6,21.3,00.0,31.6,24.5,17.6,-001.4,0014.14,0010.44,0010.04
2023-01-02 02:52:00,,0819.9,5.00,0.00,22.6,21.3,00.0,31.6,24.5,17.6,-001.4,0014.14,0010.45,0010.04
2023-01-02 02:53:00,,0819.9,5.00,0.00,22.6,21.3,00.0,31.6,24.5,17.6,-001.5,0014.18,0010.47,0010.05
2023-01-02 02:54:00,,0819.9,5.00,0.00,22.6,21.3,00.0,31.6,24.5,17.5,-001.4,0014.18,0010.43,0010.03
2023-01-02 02:55:00,,0819.9,4.99,0.00,22.6,21.3,00.0,31.6,24.5,17.6,-001.7,0014.25,0010.40,0010.00
2023-01-02 02:56:00,,0819.9,5.01,0.00,22.6,21.4,00.0,31.5,24.5,17.6,-001.8,0014.20,0010.35,0009.95
2023-01-02 02:57:00,,0819.9,5.01,0.00,22.6,21.4,00.0,31.5,24.5,17.6,-001.7,0014.13,0010.30,0009.90
2023-01-02 02:58:00,,0819.9,4.99,0.00,22.6,21.3,00.0,31.5,24.5,17.6,-001.7,0014.11,0010.28,0009.88
2023-01-02 02:59:00,,0820.0,4.99,0.00,22.6,21.3,00.0,31.5,24.4,17.6,-001.7,0014.17,0010.34,0009.93
